Wind_Speed
7 5 5 6 8 5 6 8 8 8 11 14 7 4 8 10 8 7 9 7 7 5 6 5 8 4 3 5 7 8 8 10 12 12 11 11 9 5 6 10 14 13 14
12 8 6 5 5 5 4 7 9 7 12 11 12 7 9 8 9 9 9 9 9 9 10 8 8 6 6 6 6 6 9 11 10 10 13 14 13 9 9 11 14 15 13
9 7 5 4 3 4 4 7 9 12 12 14 12 11 11 11 9 11 12 10 10 10 7 5 6 6 7 8 9 10 13 13 14 14 13 13 15 15 14 14 15 16 16
9 8 5 4 4 4 3 5 7 11 12 13 14 15 15 13 12 12 10 10 9 6 5 5 6 7 7 8 10 11 13 14 14 15 14 13 13 16 15 15 17 16 16
6 6 6 5 4 6 4 4 3 5 10 14 14 15 14 14 14 14 13 11 9 7 6 4 5 6 8 11 11 11 13 14 16 18 18 18 16 17 17 17 16 17 18
7 6 6 6 5 5 7 4 6 5 9 14 15 17 17 17 18 15 15 13 12 10 9 7 8 9 12 12 13 14 17 19 20 22 22 23 22 22 24 24 22 21 20
11 9 8 9 8 7 9 8 6 8 14 5 12 16 18 17 17 16 14 16 14 10 7 6 7 10 12 14 16 18 20 22 23 25 26 26 28 26 27 30 30 27 27
11 12 12 11 10 11 12 11 10 11 12 15 18 19 20 19 18 16 16 14 10 8 8 8 7 10 13 17 21 22 22 21 22 24 27 29 32 32 32 32 31 33 32
16 16 17 17 15 14 14 13 14 14 14 14 16 19 20 19 17 17 15 13 11 11 11 10 9 12 15 19 24 25 21 18 22 26 29 33 36 37 37 37 36 35 34
23 21 20 21 20 20 17 17 18 18 16 16 17 19 20 18 20 17 15 13 12 12 13 11 11 13 15 19 23 24 22 24 26 28 30 32 36 36 33 35 32 34 33
22 24 25 25 25 24 23 24 21 21 19 19 18 18 20 22 20 17 15 13 11 11 11 10 12 14 16 19 23 30 34 31 30 33 32 33 30 26 25 26 26 26 30
20 23 24 26 27 28 29 29 31 24 24 22 21 19 22 22 19 18 16 14 12 12 13 14 15 16 19 25 30 34 34 34 32 33 31 29 23 19 20 17 19 23 25
24 22 24 25 26 29 31 32 34 29 31 27 24 22 25 24 22 20 18 14 13 15 17 17 20 21 25 32 35 34 32 31 31 31 31 26 21 15 14 13 12 12 16
32 30 29 29 28 29 30 32 35 35 35 31 25 23 25 26 26 22 20 16 17 20 20 22 23 26 31 35 40 34 31 28 26 28 29 21 19 14 11 8 8 8 8
40 39 37 35 34 35 35 34 33 36 38 6 23 26 27 27 26 26 25 20 17 22 21 25 27 30 32 33 27 25 20 21 21 23 22 17 18 14 10 9 7 8 8
37 42 44 43 40 40 41 37 36 34 31 32 36 23 35 29 25 25 24 25 24 25 26 29 29 32 30 26 19 18 18 16 16 18 17 14 13 12 11 9 9 9 10
35 36 38 42 43 42 43 39 38 35 30 26 20 10 11 16 25 33 32 21 27 24 30 32 31 30 24 20 16 16 15 14 15 15 14 12 13 10 8 7 7 6 7
33 36 36 34 35 36 37 36 38 39 33 24 16 14 14 16 19 27 26 18 23 26 30 30 29 25 22 16 17 15 14 13 13 13 13 11 11 11 10 7 6 5 9
33 34 34 33 31 31 31 28 31 32 34 24 17 18 19 20 21 24 27 26 27 30 31 27 26 25 20 15 16 14 13 13 12 12 11 9 9 9 7 7 7 7 6
28 30 32 33 32 31 29 27 26 30 34 31 28 22 21 19 20 21 22 26 26 25 27 25 24 24 19 17 16 13 13 11 9 9 9 8 7 6 7 7 7 6 7
26 26 29 32 32 31 25 24 26 30 27 23 19 20 19 18 19 22 24 24 24 24 24 25 28 21 16 16 14 13 12 8 5 6 7 7 7 7 9 8 7 7 7
27 25 25 28 27 27 26 27 28 30 29 31 25 20 21 20 20 21 24 23 23 23 25 25 23 18 20 15 13 12 9 3 2 4 6 9 11 11 13 15 19 21 22
27 26 23 25 28 28 27 24 26 25 22 24 25 21 20 20 19 16 19 21 22 20 22 22 18 16 17 16 11 7 7 7 5 6 8 10 13 17 17 20 22 22 21
25 25 25 28 31 31 29 34 28 24 21 19 25 24 22 18 16 15 19 22 19 13 12 9 10 16 17 13 8 10 10 9 10 13 15 18 20 23 25 26 28 29 28
22 22 23 24 31 34 32 30 28 27 26 21 21 23 20 18 16 22 20 24 21 17 18 15 10 10 14 7 6 9 8 11 15 19 21 23 25 28 29 28 27 29 29
20 20 22 24 39 32 27 26 26 26 29 24 22 22 18 17 19 25 28 23 23 23 20 21 11 8 7 9 11 12 14 17 20 24 26 28 31 30 25 24 26 25 26
Wind_Direction
273 310 290 248 253 279 262 241 240 241 235 224 218 243 237 243 228 218 241 235 236 263 271 257 247 254 289 264 288 276 289 300 313 306 302 307 315 331 292 282 273 276 270
257 279 268 239 254 283 284 264 250 245 229 239 216 221 218 252 231 229 247 253 252 260 269 270 252 255 281 285 295 289 283 295 300 303 306 304 304 312 292 283 280 277 270
272 289 280 236 279 295 280 260 242 249 246 243 223 239 256 250 235 236 243 259 249 260 265 275 275 280 282 276 276 277 282 286 290 292 285 280 287 292 288 286 282 275 265
263 285 303 267 248 244 261 272 257 249 244 241 230 230 240 247 248 241 242 252 252 254 248 262 274 275 277 281 277 284 286 289 292 291 291 283 282 286 292 282 269 267 265
272 296 300 290 272 272 290 268 261 253 252 245 236 234 233 237 236 235 238 241 244 242 258 253 266 276 283 281 289 290 292 290 285 284 285 283 279 280 281 275 272 268 261
266 272 277 268 273 285 269 276 264 283 243 236 230 226 223 221 221 225 225 225 228 214 225 242 262 279 293 308 309 305 295 291 288 287 285 284 283 281 281 276 270 269 267
259 264 273 276 272 267 264 264 255 246 232 215 225 218 223 219 217 215 224 223 207 223 239 261 281 299 311 315 310 303 299 298 299 295 294 296 290 284 276 274 277 273 267
258 254 262 267 265 255 255 253 262 258 252 243 235 229 228 214 214 214 208 215 224 239 255 263 290 312 325 321 317 313 307 302 297 299 301 300 296 292 285 276 268 268 268
269 254 249 253 256 258 257 252 250 251 252 249 234 225 221 218 212 201 211 218 232 244 251 259 296 325 332 337 337 328 317 308 307 306 303 300 300 301 291 276 266 262 264
271 261 256 254 257 260 257 255 251 247 245 241 234 225 221 213 199 210 219 226 241 251 265 278 297 319 332 346 346 339 328 313 309 310 306 302 301 297 287 277 272 258 255
273 269 260 258 259 259 256 252 251 250 245 239 233 236 230 202 206 216 221 235 250 265 282 302 302 310 317 325 329 333 335 329 322 320 316 320 317 304 296 279 266 255 247
270 272 269 263 258 260 259 258 246 242 245 238 235 234 217 209 220 228 233 246 263 282 295 304 297 298 306 316 316 319 323 328 325 321 324 322 314 311 310 296 272 263 247
266 268 272 273 271 265 261 259 258 252 239 232 228 227 223 222 230 236 240 252 271 283 289 291 291 296 302 305 308 310 313 318 320 322 328 322 320 310 312 312 295 265 235
265 263 263 266 271 273 272 267 263 268 243 224 221 226 232 233 235 240 242 255 273 277 286 288 289 293 300 305 307 303 299 306 317 327 328 327 333 318 302 313 300 285 242
259 260 260 261 267 270 271 276 277 274 274 215 219 217 224 233 241 245 243 248 258 272 277 282 286 292 298 303 306 292 292 306 323 328 332 337 342 334 294 305 300 271 248
259 256 256 257 258 265 271 275 277 284 293 304 302 249 223 234 263 256 259 252 248 260 276 282 283 290 297 297 292 292 300 311 322 338 341 351 350 350 347 323 289 269 262
264 262 257 254 254 256 263 268 274 278 285 295 304 310 218 221 236 241 243 248 232 257 272 275 277 286 288 285 282 290 296 313 325 336 339 353 3 359 344 334 341 329 295
263 259 260 258 256 256 258 266 267 269 272 276 273 261 249 245 236 231 243 252 249 263 271 266 272 277 278 270 273 279 292 305 315 324 330 345 358 11 24 17 5 314 302
269 257 257 257 255 256 257 259 265 268 267 263 262 256 248 244 242 244 247 248 258 258 260 262 265 270 273 258 261 272 283 294 307 311 315 326 335 349 1 5 6 14 14
270 260 254 251 250 252 250 252 259 255 263 255 268 260 255 247 243 247 251 251 249 245 255 255 260 266 259 246 252 261 274 278 279 287 304 319 327 330 338 337 330 332 344
276 265 254 249 245 243 243 242 245 254 266 277 259 257 254 247 241 240 242 240 243 242 240 252 257 257 253 249 250 258 263 266 287 323 338 346 352 353 352 345 332 328 307
272 266 261 243 233 226 228 229 241 251 261 278 276 258 251 247 242 240 237 239 233 232 238 243 247 246 243 244 249 251 267 263 253 312 329 331 333 339 334 330 327 329 326
265 259 260 234 225 217 210 222 244 251 262 267 264 262 252 242 240 241 230 229 230 228 230 235 240 241 242 238 232 239 245 234 250 274 295 311 315 316 318 314 306 306 307
263 255 251 236 224 216 231 232 242 249 259 270 253 255 257 248 239 229 234 226 200 186 197 207 229 244 241 238 222 221 227 254 287 299 305 306 307 306 306 305 300 304 295
256 259 249 229 211 219 228 231 235 251 259 257 268 266 255 249 217 215 209 204 194 187 206 221 248 287 260 228 233 234 259 284 295 304 304 300 304 303 298 296 296 295 291
252 247 242 230 216 226 226 225 227 241 241 257 257 255 246 235 210 198 190 195 199 211 211 219 235 266 251 237 245 264 280 292 298 298 300 300 298 295 289 292 294 293 293
Height
3170 3173 3174 3173 3174 3174 3174 3175 3177 3179 3181 3185 3189 3190 3191 3192 3193 3194 3196 3197 3198 3196 3197 3196 3197 3197 3197 3197 3197 3196 3195 3196 3196 3194 3193 3193 3194 3194 3194 3192 3194 3193 3194
3169 3172 3173 3173 3173 3173 3172 3174 3174 3176 3179 3182 3185 3186 3189 3189 3190 3192 3193 3194 3195 3194 3194 3193 3194 3194 3194 3195 3195 3194 3195 3194 3194 3193 3190 3190 3190 3190 3192 3190 3189 3189 3188
3167 3169 3170 3170 3170 3170 3170 3172 3171 3173 3176 3179 3182 3184 3186 3188 3187 3189 3190 3191 3191 3192 3192 3192 3191 3191 3191 3191 3191 3191 3191 3191 3190 3190 3189 3188 3187 3186 3186 3185 3184 3183 3184
3164 3165 3166 3166 3168 3168 3169 3169 3170 3171 3174 3176 3178 3180 3182 3182 3183 3185 3185 3187 3188 3188 3189 3189 3189 3189 3189 3188 3187 3186 3186 3186 3185 3186 3185 3184 3183 3181 3181 3181 3180 3179 3179
3162 3162 3162 3162 3163 3165 3166 3168 3169 3169 3171 3172 3174 3176 3177 3178 3180 3181 3182 3183 3184 3184 3185 3185 3186 3185 3184 3184 3184 3183 3182 3181 3180 3178 3178 3178 3178 3177 3176 3175 3174 3173 3174
3161 3159 3159 3160 3161 3161 3163 3165 3166 3166 3167 3168 3169 3171 3172 3174 3175 3176 3178 3179 3179 3180 3181 3181 3182 3181 3181 3180 3178 3176 3176 3175 3173 3172 3171 3171 3170 3168 3167 3166 3166 3166 3166
3158 3158 3156 3157 3159 3160 3160 3161 3162 3161 3164 3165 3164 3165 3168 3170 3171 3172 3174 3176 3177 3178 3179 3179 3180 3179 3177 3175 3174 3171 3170 3167 3166 3164 3163 3162 3161 3161 3159 3156 3156 3156 3157
3153 3154 3155 3154 3155 3155 3156 3157 3157 3158 3159 3160 3162 3161 3164 3166 3168 3170 3172 3175 3176 3176 3177 3177 3177 3176 3174 3172 3170 3167 3165 3162 3159 3156 3154 3154 3151 3149 3149 3147 3147 3145 3145
3149 3150 3151 3149 3150 3150 3151 3152 3153 3153 3154 3155 3156 3158 3160 3163 3165 3167 3169 3171 3172 3173 3173 3173 3173 3172 3170 3168 3164 3161 3159 3157 3154 3151 3148 3143 3139 3136 3134 3131 3133 3133 3134
3144 3145 3144 3144 3144 3146 3145 3147 3147 3147 3148 3149 3150 3153 3156 3159 3161 3164 3166 3168 3169 3170 3170 3170 3169 3167 3164 3161 3159 3157 3155 3153 3149 3146 3141 3135 3129 3122 3118 3116 3118 3120 3122
3137 3137 3137 3137 3138 3140 3141 3139 3140 3142 3141 3144 3146 3148 3150 3155 3157 3160 3162 3165 3166 3166 3165 3165 3163 3160 3158 3156 3153 3150 3148 3144 3139 3134 3130 3124 3118 3114 3109 3107 3107 3108 3110
3131 3130 3129 3130 3131 3131 3130 3130 3126 3130 3133 3135 3139 3142 3145 3150 3153 3155 3158 3159 3161 3161 3160 3159 3158 3156 3154 3151 3148 3144 3141 3137 3132 3128 3121 3115 3111 3107 3104 3101 3100 3101 3103
3125 3125 3124 3124 3123 3123 3123 3121 3119 3116 3124 3127 3131 3134 3138 3144 3146 3150 3153 3154 3154 3154 3154 3153 3152 3150 3148 3145 3142 3138 3135 3132 3127 3122 3114 3111 3106 3102 3100 3098 3097 3096 3098
3117 3117 3117 3117 3116 3115 3113 3112 3112 3106 3083 3110 3120 3126 3131 3135 3139 3143 3145 3147 3148 3149 3148 3148 3146 3145 3143 3139 3134 3131 3129 3126 3121 3116 3111 3106 3102 3099 3098 3096 3096 3096 3097
3105 3106 3107 3108 3107 3106 3105 3105 3104 3102 3099 3065 3102 3112 3121 3124 3131 3136 3137 3138 3139 3141 3142 3142 3141 3139 3136 3132 3127 3124 3123 3119 3116 3113 3108 3104 3100 3097 3095 3094 3094 3095 3095
3092 3094 3096 3097 3098 3097 3095 3097 3097 3098 3099 3094 3094 3103 3114 3115 3121 3127 3132 3132 3131 3132 3135 3135 3134 3132 3130 3126 3123 3120 3118 3116 3114 3109 3107 3103 3099 3096 3094 3092 3092 3092 3092
3082 3082 3083 3084 3086 3088 3085 3087 3090 3093 3097 3097 3094 3099 3106 3109 3112 3118 3125 3117 3125 3126 3127 3127 3126 3125 3124 3121 3118 3117 3115 3112 3110 3107 3105 3102 3098 3095 3093 3091 3090 3089 3089
3070 3071 3072 3074 3076 3077 3078 3078 3081 3084 3090 3093 3095 3097 3097 3101 3105 3110 3115 3116 3115 3118 3120 3118 3118 3118 3117 3116 3114 3112 3111 3109 3107 3105 3103 3101 3098 3095 3092 3089 3087 3087 3087
3058 3060 3062 3064 3066 3069 3071 3072 3073 3075 3077 3082 3086 3088 3091 3095 3098 3102 3105 3105 3107 3108 3110 3110 3110 3109 3110 3111 3109 3108 3107 3106 3103 3103 3101 3099 3097 3094 3092 3089 3088 3086 3085
3048 3049 3051 3053 3057 3059 3062 3064 3066 3068 3070 3074 3077 3080 3082 3085 3088 3092 3093 3094 3096 3099 3100 3101 3102 3102 3103 3104 3104 3103 3103 3102 3101 3100 3099 3097 3095 3093 3091 3089 3087 3085 3084
3038 3039 3040 3043 3046 3051 3055 3058 3061 3062 3064 3067 3071 3073 3074 3076 3079 3081 3083 3085 3088 3090 3092 3093 3095 3096 3096 3097 3099 3099 3098 3098 3097 3096 3096 3094 3093 3091 3089 3087 3087 3085 3083
3028 3029 3030 3032 3035 3041 3047 3052 3054 3056 3058 3059 3063 3067 3067 3069 3071 3073 3075 3078 3081 3084 3085 3087 3088 3091 3091 3093 3094 3094 3094 3094 3094 3094 3093 3091 3090 3088 3086 3085 3081 3080 3078
3019 3020 3021 3023 3028 3031 3037 3042 3046 3050 3052 3053 3053 3055 3059 3062 3064 3066 3069 3072 3075 3076 3079 3081 3085 3086 3086 3088 3089 3090 3090 3091 3091 3091 3090 3089 3087 3085 3084 3083 3080 3079 3076
3011 3012 3013 3015 3019 3025 3028 3031 3036 3041 3044 3045 3045 3048 3052 3056 3059 3062 3064 3066 3068 3071 3075 3077 3080 3080 3082 3084 3086 3087 3087 3087 3088 3087 3086 3085 3083 3082 3080 3077 3075 3073 3071
3004 3005 3007 3009 3012 3017 3021 3024 3028 3032 3036 3038 3037 3041 3044 3047 3050 3055 3058 3062 3063 3066 3068 3072 3076 3078 3079 3080 3082 3083 3083 3084 3083 3082 3080 3079 3077 3075 3072 3070 3069 3067 3064
2997 2999 3000 3001 3006 3010 3013 3017 3021 3025 3028 3031 3032 3035 3039 3042 3045 3049 3052 3055 3057 3060 3064 3068 3072 3076 3076 3077 3078 3079 3079 3078 3076 3075 3073 3072 3069 3066 3063 3062 3061 3058 3056